Location: Cochran
(32.3868°N, 83.3546°W)
Time: 13:22:50
(UTC+00:00)

STARLINK-49 - Pass Details

Date: 18 February 2020
Orbit: 529 x 530 km, 53.0° (Epoch: 07 April)

Event Time Altitude Azimuth Distance (km) Brightness Sun altitude
Rises 23:45:30 0° 226° (SW) 2,649 8.2 -5.8°
Reaches altitude 10° 23:47:42 10° 228° (SW) 1,764 7.2 -6.2°
Maximum altitude 23:51:42 76° 314° (NW) 547 3.7 -7.1°
Drops below altitude 10° 23:55:43 10° 40° (NE) 1,774 5.8 -7.9°
Enters shadow 23:56:56 - 42° (NE) 2,261 6.3 -8.2°
